N454FA KBOI-

Flight info

Callsign N454FA
Flight time N/A
Altitude
Route PATTERN
Aircraft TBM9/L-VGD/C

Departure

Time 2026-05-06 00:04
Airport Boise Air Terminal/Gowen Field (KBOI)

Arrival

Time N/A
Airport -
Time Latitude Longitude Altitude Speed Heading
2026-05-06 00:00 43.55792 -116.21023 2864 ft 5 kts 51°
2026-05-06 00:01 43.55793 -116.21023 2864 ft 0 kts 51°
2026-05-06 00:01 43.55793 -116.21022 2864 ft 1 kts 51°
2026-05-06 00:01 43.55882 -116.21001 2867 ft 19 kts 321°
2026-05-06 00:01 43.55906 -116.21046 2867 ft 0 kts 293°
2026-05-06 00:02 43.55911 -116.21065 2867 ft 16 kts 292°
2026-05-06 00:02 43.56051 -116.21482 2866 ft 78 kts 295°
2026-05-06 00:03 43.56340 -116.22374 2877 ft 126 kts 294°
2026-05-06 00:03 43.56741 -116.23547 3111 ft 127 kts 300°
2026-05-06 00:03 43.57002 -116.24686 3042 ft 139 kts 271°
2026-05-06 00:03 43.56311 -116.25714 3057 ft 180 kts 191°
2026-05-06 00:04 43.55224 -116.25173 3183 ft 169 kts 119°
2026-05-06 00:04 43.54902 -116.23682 3478 ft 161 kts 92°
2026-05-06 00:04 43.54795 -116.22094 3539 ft 175 kts 88°
2026-05-06 00:04 43.54578 -116.20346 3520 ft 196 kts 103°
2026-05-06 00:05 43.53686 -116.16840 3941 ft 165 kts 104°
2026-05-06 00:05 43.53328 -116.15718 4040 ft 111 kts 111°
2026-05-06 00:05 43.52975 -116.14701 3902 ft 122 kts 110°
2026-05-06 00:06 43.52880 -116.13638 3809 ft 112 kts 56°
2026-05-06 00:06 43.53433 -116.13191 3678 ft 99 kts 339°
2026-05-06 00:06 43.53743 -116.14082 3574 ft 110 kts 291°
2026-05-06 00:06 43.53898 -116.15022 3574 ft 99 kts 293°
2026-05-06 00:07 43.54074 -116.16003 3436 ft 109 kts 295°
2026-05-06 00:07 43.54389 -116.16952 3299 ft 110 kts 298°
2026-05-06 00:07 43.54690 -116.17949 3171 ft 112 kts 297°
2026-05-06 00:07 43.55020 -116.18919 3114 ft 109 kts 299°
2026-05-06 00:08 43.55357 -116.19727 3004 ft 80 kts 303°
2026-05-06 00:08 43.55636 -116.20428 2944 ft 86 kts 299°
2026-05-06 00:08 43.55918 -116.21160 2915 ft 86 kts 298°
2026-05-06 00:08 43.56157 -116.21830 2865 ft 72 kts 295°
2026-05-06 00:09 43.56381 -116.22496 2862 ft 78 kts 295°
2026-05-06 00:09 43.56616 -116.23209 2894 ft 88 kts 293°
2026-05-06 00:09 43.56875 -116.23956 3012 ft 87 kts 301°
2026-05-06 00:09 43.57153 -116.24740 3060 ft 95 kts 297°
2026-05-06 00:10 43.57490 -116.25574 3074 ft 118 kts 303°
2026-05-06 00:10 43.57919 -116.26807 3114 ft 162 kts 297°
2026-05-06 00:10 43.58343 -116.28426 3128 ft 196 kts 281°
2026-05-06 00:10 43.57924 -116.30213 3277 ft 213 kts 228°
2026-05-06 00:11 43.56493 -116.30570 3163 ft 225 kts 154°
2026-05-06 00:11 43.55688 -116.28899 3259 ft 207 kts 97°
2026-05-06 00:11 43.55470 -116.27377 3578 ft 135 kts 97°
2026-05-06 00:11 43.55182 -116.26139 3600 ft 134 kts 101°
2026-05-06 00:12 43.54922 -116.24947 3722 ft 129 kts 103°
2026-05-06 00:12 43.54554 -116.23806 3866 ft 131 kts 106°
2026-05-06 00:12 43.54200 -116.22662 4023 ft 128 kts 107°
2026-05-06 00:12 43.53822 -116.21546 4151 ft 132 kts 111°
2026-05-06 00:13 43.53386 -116.20423 4276 ft 133 kts 116°
2026-05-06 00:13 43.52927 -116.19315 4426 ft 131 kts 118°
2026-05-06 00:13 43.52454 -116.18266 4558 ft 130 kts 120°
2026-05-06 00:13 43.51929 -116.17131 4362 ft 152 kts 114°
2026-05-06 00:14 43.51786 -116.15727 4145 ft 147 kts 68°
2026-05-06 00:14 43.52420 -116.14796 3772 ft 133 kts 13°
2026-05-06 00:14 43.53152 -116.15231 3603 ft 116 kts 313°
2026-05-06 00:14 43.53417 -116.15891 3395 ft 120 kts 297°
2026-05-06 00:15 43.53802 -116.17153 3282 ft 92 kts 304°
2026-05-06 00:15 43.54026 -116.17632 3258 ft 86 kts 309°
2026-05-06 00:15 43.54372 -116.18288 3227 ft 84 kts 308°
2026-05-06 00:15 43.54712 -116.18943 3120 ft 80 kts 308°
2026-05-06 00:16 43.55005 -116.19570 3055 ft 78 kts 305°
2026-05-06 00:16 43.55307 -116.20163 2998 ft 74 kts 311°
2026-05-06 00:16 43.55700 -116.20761 2919 ft 90 kts 311°
2026-05-06 00:16 43.56044 -116.21474 2879 ft 88 kts 294°
2026-05-06 00:17 43.56286 -116.22206 2864 ft 82 kts 296°
2026-05-06 00:17 43.56517 -116.22888 2868 ft 78 kts 295°
2026-05-06 00:17 43.56720 -116.23564 2886 ft 68 kts 292°
2026-05-06 00:17 43.56955 -116.24200 2919 ft 83 kts 296°
2026-05-06 00:18 43.57148 -116.24957 3025 ft 88 kts 297°
2026-05-06 00:18 43.57395 -116.25970 3053 ft 139 kts 291°
2026-05-06 00:18 43.57766 -116.27449 3068 ft 186 kts 291°
2026-05-06 00:18 43.58067 -116.29050 3230 ft 125 kts 289°
2026-05-06 00:19 43.58192 -116.30251 3169 ft 153 kts 284°
2026-05-06 00:19 43.58343 -116.31889 3330 ft 182 kts 272°
2026-05-06 00:19 43.57904 -116.33636 3382 ft 216 kts 242°
2026-05-06 00:19 43.56661 -116.34975 3548 ft 236 kts 207°
2026-05-06 00:20 43.54954 -116.35248 3099 ft 265 kts 163°
2026-05-06 00:20 43.53856 -116.33521 3502 ft 219 kts 104°
2026-05-06 00:20 43.53718 -116.31951 3426 ft 120 kts 75°
2026-05-06 00:20 43.53823 -116.30932 3217 ft 101 kts 66°
2026-05-06 00:21 43.54042 -116.30092 3272 ft 83 kts 44°
2026-05-06 00:21 43.54264 -116.29377 3304 ft 98 kts 65°
2026-05-06 00:21 43.54391 -116.28315 3295 ft 119 kts 73°
2026-05-06 00:21 43.54592 -116.27211 3394 ft 115 kts 61°
2026-05-06 00:22 43.54587 -116.26004 3339 ft 134 kts 90°
2026-05-06 00:22 43.54507 -116.24541 3369 ft 164 kts 85°
2026-05-06 00:22 43.54241 -116.22997 3426 ft 176 kts 114°
2026-05-06 00:22 43.53327 -116.21864 3463 ft 183 kts 158°
2026-05-06 00:23 43.52138 -116.22219 3266 ft 179 kts 232°
2026-05-06 00:23 43.51913 -116.23542 3262 ft 128 kts 288°
2026-05-06 00:23 43.52391 -116.24400 3227 ft 104 kts 333°
2026-05-06 00:23 43.53055 -116.24420 3264 ft 91 kts 14°
2026-05-06 00:24 43.53628 -116.23797 3400 ft 130 kts 44°
2026-05-06 00:24 43.53969 -116.22485 3354 ft 162 kts 82°
2026-05-06 00:24 43.53792 -116.21129 3525 ft 125 kts 104°
2026-05-06 00:24 43.53482 -116.20226 3582 ft 88 kts 104°
2026-05-06 00:25 43.53214 -116.19372 3536 ft 105 kts 105°
2026-05-06 00:25 43.52839 -116.18486 3609 ft 108 kts 115°
2026-05-06 00:25 43.52417 -116.17650 3735 ft 105 kts 123°
2026-05-06 00:25 43.51966 -116.16823 3829 ft 114 kts 108°
2026-05-06 00:26 43.51781 -116.15705 3768 ft 124 kts 82°
2026-05-06 00:26 43.52045 -116.14696 3678 ft 98 kts 23°
2026-05-06 00:26 43.52594 -116.14936 3499 ft 93 kts 315°
2026-05-06 00:26 43.52957 -116.15614 3417 ft 83 kts 310°
2026-05-06 00:27 43.53272 -116.16234 3326 ft 75 kts 312°
2026-05-06 00:27 43.53591 -116.16744 3241 ft 66 kts 316°
2026-05-06 00:27 43.53856 -116.17205 3228 ft 57 kts 310°
2026-05-06 00:27 43.54089 -116.17658 3189 ft 62 kts 309°
2026-05-06 00:28 43.54340 -116.18197 3119 ft 73 kts 302°
2026-05-06 00:28 43.54591 -116.18758 3121 ft 63 kts 311°
2026-05-06 00:28 43.54868 -116.19225 3058 ft 61 kts 308°
2026-05-06 00:28 43.55114 -116.19704 2997 ft 62 kts 309°
2026-05-06 00:29 43.55360 -116.20153 2973 ft 55 kts 309°
2026-05-06 00:29 43.55602 -116.20579 2916 ft 54 kts 310°
2026-05-06 00:29 43.55847 -116.20951 2884 ft 52 kts 309°
2026-05-06 00:29 43.56016 -116.21373 2868 ft 48 kts 293°
2026-05-06 00:30 43.56158 -116.21801 2860 ft 56 kts 296°
2026-05-06 00:30 43.56295 -116.22198 2850 ft 39 kts 295°
2026-05-06 00:30 43.56374 -116.22445 2852 ft 22 kts 281°
2026-05-06 00:30 43.56297 -116.22571 2852 ft 21 kts 163°
2026-05-06 00:31 43.56196 -116.22416 2853 ft 24 kts 124°
2026-05-06 00:31 43.56084 -116.22165 2854 ft 35 kts 122°
2026-05-06 00:31 43.56019 -116.21987 2856 ft 11 kts 116°
2026-05-06 00:31 43.55991 -116.21927 2857 ft 4 kts 147°
2026-05-06 00:32 43.55983 -116.21922 2857 ft 0 kts 167°